Location: Musselshell
(46.5176°N, 108.0911°W)
Time: 11:31:56
(UTC+00:00)

EO-88 - Pass Details

Date: 05 July 2022
Orbit: 453 x 462 km, 97.3° (Epoch: 10 August)

Event Time Altitude Azimuth Distance (km) Brightness Sun altitude
Exits shadow 05:41:30 - 230° (SW) 1,733 ? -17.4°
Reaches altitude 10° 05:41:58 10° 236° (SW) 1,624 ? -17.4°
Maximum altitude 05:43:51 14° 269° (W) 1,400 ? -17.6°
Drops below altitude 10° 05:45:45 10° 302° (WNW) 1,631 ? -17.7°
Sets 05:48:38 0° 329° (NNW) 2,511 ? -17.9°
